Flag for Austria Weather past 2 weeks in Wolfsberg, Carinthia, Austria

50 °F

Mostly cloudy.

Feels Like: 47 °F
Forecast: 39 / 57 °F
Wind: 7 mph from Northeast

Location: Zeltweg

Current Time: Oct 10, 2015 at 8:48:34 PM

Latest Report: Oct 10, 2015 at 7:50 PM

Visibility: 9 mi

Pressure: 29.92 "Hg

Humidity: 82%

Dew point: 45 °F

Location of WolfsbergLocation

Historic Weather in Wolfsberg — Graph


Wolfsberg temperature yesterday

Maximum temperature yesterday: 57 °F (at 1:50 PM)
Minimum temperature yesterday: 48 °F (at 7:20 AM)
Average temperature yesterday: 53 °F

Past Weeks' High & Low Weather Summary

High66 °F (Oct 3, 3:50 PM)100% (Sep 26, 5:50 AM)30.51 "Hg (Sep 26, 5:50 AM)
Low28 °F (Sep 29, 7:20 AM)32% (Oct 5, 3:50 PM)29.83 "Hg (Oct 6, 3:50 PM)
Average50 °F78%30.20 "Hg
* Reported Sep 25 7:50 PM — Oct 10 7:50 PM, Wolfsberg, Weather by CustomWeather, © 2015

Note: Actual official high and low records may vary slightly from our data, if they occured in-between our weather recording intervals... More about our weather records


Wolfsberg weather history for previous 24 hours

Time TempWeatherWind HumidityBarometerVisibility
7:50 PM
Sat, Oct 10
50 °FMostly cloudy.7 mph82%29.92 "Hg9 mi
6:50 PM52 °FMore clouds than sun.6 mph82%29.95 "Hg12 mi
5:50 PM52 °FMore clouds than sun.5 mph77%29.95 "Hg16 mi
4:50 PM52 °FMore clouds than sun.6 mph77%29.95 "Hg16 mi
3:50 PM54 °FMore clouds than sun.5 mph72%29.95 "Hg16 mi
2:50 PM54 °FMore clouds than sun.6 mph72%29.98 "Hg12 mi
1:50 PM54 °FMore clouds than sun.5 mph77%29.98 "Hg12 mi
12:50 PM54 °FMore clouds than sun.5 mph82%30.01 "Hg9 mi
11:50 AM54 °FMore clouds than sun.7 mph88%30.01 "Hg6 mi
10:50 AM52 °FDrizzle. More clouds than sun.6 mph94%30.01 "Hg5 mi
9:50 AM50 °FDrizzle. Fog.2 mph100%30.04 "Hg2 mi
8:50 AM50 °FFog.2 mph100%30.04 "Hg3 mi
7:50 AM50 °FFog.2 mph94%30.04 "Hg3 mi
6:50 AM50 °FFog.3 mph94%30.04 "Hg3 mi
5:50 AM50 °FPartly cloudy.1 mph100%30.04 "Hg4 mi
10:50 PM
Fri, Oct 9
54 °FPartly cloudy.1 mph94%30.09 "Hg5 mi
9:50 PM54 °FPartly cloudy.5 mph94%30.09 "Hg5 mi
8:50 PM54 °FPassing clouds.2 mph94%30.09 "Hg6 mi
Weather by CustomWeather, © 2015

See weather overviewHow to use our weather pages